CW7221 Weather Reports


time (UTC)temp
C
wind
direction
speed
KPH
gust
KPH
rain 1hr
cm
rain 24hr
cm
rain mn
cm
humidity
%
barometer
mb
20260506051003 21 210 3.2 12.9 0.00 0.08 0.00 59 1009.7
20260506050502 21 203 3.2 9.7 0.00 0.08 0.00 58 1009.7
20260506045003 21 198 4.8 11.3 0.00 0.08 0.00 57 1009.8
20260506044503 21 198 4.8 11.3 0.00 0.08 0.00 57 1009.9
20260506044024 21 200 3.2 11.3 0.00 0.08 0.00 58 1009.8
20260506043503 21 196 3.2 8.0 0.00 0.08 0.00 57 1009.8
20260506043003 21 196 4.8 11.3 0.00 0.08 0.00 57 1009.8
20260506042503 21 195 4.8 11.3 0.00 0.08 0.00 56 1009.8
20260506042003 21 194 4.8 11.3 0.00 0.08 0.00 56 1009.9
20260506041503 21 199 4.8 9.7 0.00 0.08 0.00 56 1009.9
20260506041003 21 197 4.8 12.9 0.00 0.08 0.00 55 1009.8
20260506040503 21 199 4.8 12.9 0.00 0.08 0.00 55 1009.8
20260506040004 21 194 4.8 14.5 0.00 0.08 0.00 55 1009.8
20260506035503 21 189 3.2 14.5 0.00 0.08 0.08 55 1009.7
20260506035024 21 201 4.8 12.9 0.00 0.08 0.08 54 1009.7
20260506034503 22 198 4.8 12.9 0.00 0.08 0.08 54 1009.8
20260506034025 22 203 4.8 12.9 0.00 0.08 0.08 54 1009.8
20260506033503 22 204 4.8 12.9 0.00 0.08 0.08 53 1009.7
20260506033004 22 194 4.8 9.7 0.00 0.08 0.08 53 1009.7
20260506032521 22 200 4.8 12.9 0.00 0.08 0.08 52 1009.7
20260506032000 22 200 4.8 12.9 0.00 0.08 0.08 52 1009.7
20260506031459 22 188 4.8 9.7 0.00 0.08 0.08 52 1009.7
20260506031000 22 192 4.8 16.1 0.00 0.08 0.08 52 1009.6
20260506030500 22 195 6.4 16.1 0.00 0.08 0.08 51 1009.7
20260506030000 22 191 4.8 14.5 0.00 0.08 0.08 51 1009.6
20260506025500 22 194 6.4 14.5 0.00 0.08 0.08 51 1009.5
20260506025022 22 191 6.4 14.5 0.00 0.08 0.08 50 1009.5
20260506024521 23 189 6.4 16.1 0.00 0.08 0.08 51 1009.5
20260506024000 23 193 6.4 16.1 0.00 0.08 0.08 50 1009.6
20260506023500 23 194 6.4 16.1 0.00 0.08 0.08 49 1009.6
20260506023000 23 198 6.4 16.1 0.00 0.08 0.08 49 1009.7
20260506022521 23 202 6.4 16.1 0.00 0.08 0.08 49 1009.7
20260506022000 23 195 6.4 16.1 0.00 0.08 0.08 48 1009.7
20260506021500 23 193 6.4 16.1 0.00 0.08 0.08 48 1009.7
20260506021000 23 187 6.4 14.5 0.00 0.08 0.08 48 1009.7
20260506020500 23 186 4.8 9.7 0.00 0.08 0.08 48 1009.6
20260506020000 23 187 4.8 9.7 0.00 0.08 0.08 47 1009.6
20260506015521 23 187 4.8 11.3 0.00 0.08 0.08 47 1009.6
20260506015000 23 189 6.4 11.3 0.00 0.08 0.08 46 1009.6
20260506014500 23 185 6.4 9.7 0.00 0.08 0.08 46 1009.5
20260506014000 23 186 6.4 14.5 0.00 0.08 0.08 46 1009.5
20260506013500 24 196 6.4 16.1 0.00 0.08 0.08 45 1009.4
20260506013000 24 197 6.4 16.1 0.00 0.08 0.08 44 1009.4
20260506012500 24 200 8.0 17.7 0.00 0.08 0.08 44 1009.3
20260506012000 24 202 9.7 17.7 0.00 0.08 0.08 44 1009.2
20260506011522 25 200 8.0 19.3 0.00 0.08 0.08 44 1009.1
20260506011000 24 200 8.0 19.3 0.00 0.08 0.08 44 1009.1
20260506010500 25 196 8.0 17.7 0.00 0.08 0.08 44 1009.0
20260506010001 25 196 6.4 19.3 0.00 0.08 0.08 43 1008.9
20260506005500 25 200 8.0 19.3 0.00 0.08 0.08 43 1008.9
20260506005022 25 197 8.0 17.7 0.00 0.08 0.08 43 1008.8
20260506004522 25 193 8.0 17.7 0.00 0.08 0.08 43 1008.8
20260506004001 25 196 8.0 17.7 0.00 0.08 0.08 43 1008.9
20260506003501 25 196 8.0 17.7 0.00 0.08 0.08 43 1008.7
20260506003001 25 199 8.0 17.7 0.00 0.08 0.08 43 1008.6
20260506002501 25 199 6.4 17.7 0.00 0.08 0.08 43 1008.6
20260506002001 25 199 8.0 19.3 0.00 0.08 0.08 42 1008.5
20260506001501 25 200 8.0 19.3 0.00 0.08 0.08 42 1008.4
20260506001001 25 198 6.4 19.3 0.00 0.08 0.08 43 1008.5
20260506000501 25 198 6.4 19.3 0.00 0.08 0.08 43 1008.5
20260506000001 25 199 6.4 19.3 0.00 0.08 0.08 43 1008.5
20260505235522 25 196 8.0 19.3 0.00 0.08 0.08 42 1008.5
20260505235001 25 190 6.4 17.7 0.00 0.08 0.08 42 1008.5
20260505234522 25 193 8.0 17.7 0.00 0.08 0.08 42 1008.4
20260505234001 26 197 9.7 22.5 0.00 0.08 0.08 42 1008.3
20260505233501 26 196 9.7 22.5 0.00 0.08 0.08 41 1008.3
20260505233001 26 195 9.7 19.3 0.00 0.08 0.08 41 1008.3
20260505232501 26 195 8.0 17.7 0.00 0.08 0.08 41 1008.3
20260505232001 26 203 8.0 16.1 0.00 0.08 0.08 42 1008.2
20260505231501 26 207 8.0 22.5 0.00 0.08 0.08 40 1008.2
20260505231001 26 202 9.7 22.5 0.00 0.08 0.08 40 1008.2
20260505230501 26 197 9.7 27.4 0.00 0.08 0.08 40 1008.1
20260505230001 26 195 9.7 27.4 0.00 0.08 0.08 40 1008.1
20260505225501 26 197 9.7 24.1 0.00 0.08 0.08 40 1008.0
20260505225001 26 199 9.7 27.4 0.00 0.08 0.08 41 1008.1
20260505224501 26 202 9.7 27.4 0.00 0.08 0.08 40 1008.1
20260505224001 26 208 9.7 25.7 0.00 0.08 0.08 41 1008.0
20260505223501 27 202 12.9 25.7 0.00 0.08 0.08 40 1008.0
20260505223001 27 197 11.3 24.1 0.00 0.08 0.08 39 1008.0
20260505222501 27 204 9.7 22.5 0.00 0.08 0.08 39 1008.0
20260505222002 27 209 8.0 22.5 0.00 0.08 0.08 37 1007.9
20260505221502 27 203 9.7 27.4 0.00 0.08 0.08 37 1007.9
20260505221002 27 199 11.3 27.4 0.00 0.08 0.08 36 1007.8
20260505220502 27 196 11.3 27.4 0.00 0.08 0.08 37 1007.6
20260505220002 27 200 11.3 29.0 0.00 0.08 0.08 37 1007.7
20260505215502 27 202 9.7 29.0 0.00 0.08 0.08 37 1007.7
20260505215002 27 209 8.0 24.1 0.00 0.08 0.08 38 1007.8
20260505214502 27 210 9.7 25.7 0.00 0.08 0.08 37 1007.8
20260505214002 27 199 9.7 25.7 0.00 0.08 0.08 37 1007.9
20260505213502 27 201 9.7 30.6 0.00 0.08 0.08 39 1007.8
20260505213002 27 200 9.7 30.6 0.00 0.08 0.08 39 1007.7
20260505212502 27 196 11.3 20.9 0.00 0.08 0.08 40 1007.8
20260505212002 27 196 9.7 20.9 0.00 0.08 0.08 39 1007.7
20260505211502 28 194 8.0 20.9 0.00 0.08 0.08 38 1007.7
20260505211002 27 195 11.3 29.0 0.00 0.08 0.08 37 1007.7
20260505210523 27 198 11.3 29.0 0.00 0.08 0.08 36 1007.6
20260505210024 27 208 12.9 32.2 0.00 0.08 0.08 37 1007.6
20260505205502 27 211 11.3 32.2 0.00 0.08 0.08 36 1007.6
20260505205023 28 208 9.7 29.0 0.00 0.08 0.08 38 1007.6
20260505204502 28 205 9.7 24.1 0.00 0.08 0.08 37 1007.5
20260505204002 27 200 11.3 29.0 0.00 0.08 0.08 38 1007.6
20260505203502 27 202 12.9 29.0 0.00 0.08 0.08 37 1007.6
20260505203002 28 204 11.3 25.7 0.00 0.08 0.08 38 1007.6
20260505202502 28 199 9.7 25.7 0.00 0.08 0.08 37 1007.6
20260505202002 28 196 9.7 27.4 0.00 0.08 0.08 38 1007.5
20260505201502 28 197 11.3 27.4 0.00 0.08 0.08 39 1007.5
20260505201002 28 205 8.0 20.9 0.00 0.08 0.08 40 1007.5
20260505200502 27 207 9.7 30.6 0.00 0.08 0.08 40 1007.7
20260505200024 27 201 11.3 30.6 0.00 0.08 0.08 39 1007.7
20260505195502 28 203 11.3 22.5 0.00 0.08 0.08 39 1007.6
20260505195024 28 208 9.7 22.5 0.00 0.08 0.08 40 1007.8
20260505194503 28 224 8.0 27.4 0.00 0.08 0.08 41 1007.8
20260505194024 28 206 9.7 30.6 0.00 0.08 0.08 39 1007.7
20260505193503 28 199 11.3 30.6 0.00 0.08 0.08 39 1007.8
20260505193003 28 205 9.7 25.7 0.00 0.08 0.08 42 1007.9
20260505192503 28 210 9.7 24.1 0.00 0.08 0.08 39 1007.8
20260505192003 28 207 9.7 27.4 0.00 0.08 0.08 40 1007.9
20260505191503 28 199 9.7 27.4 0.00 0.08 0.08 38 1007.7
20260505191003 28 193 9.7 24.1 0.00 0.08 0.08 39 1007.7
20260505190503 28 197 9.7 22.5 0.00 0.08 0.08 39 1007.9
20260505190003 28 205 8.0 20.9 0.00 0.08 0.08 38 1008.1
20260505185503 28 224 6.4 19.3 0.00 0.08 0.08 37 1008.1
20260505185003 28 228 6.4 19.3 0.00 0.08 0.08 36 1008.0
20260505184503 28 217 6.4 19.3 0.00 0.08 0.08 38 1008.3
20260505184003 28 221 6.4 19.3 0.00 0.08 0.08 37 1008.2
20260505183503 28 222 6.4 19.3 0.00 0.08 0.08 37 1008.4
20260505183003 28 222 6.4 19.3 0.00 0.08 0.08 36 1008.4
20260505182503 28 231 6.4 19.3 0.00 0.08 0.08 38 1008.4
20260505182000 28 258 6.4 17.7 0.00 0.08 0.08 37 1008.4
20260505181459 28 244 6.4 17.7 0.00 0.08 0.08 37 1008.5
20260505180959 28 218 6.4 17.7 0.00 0.08 0.08 36 1008.5
20260505180521 28 211 4.8 17.7 0.00 0.08 0.08 39 1008.5
20260505180000 28 210 6.4 20.9 0.00 0.08 0.08 37 1008.5
20260505175500 28 222 6.4 20.9 0.00 0.08 0.08 39 1008.9
20260505175000 28 243 6.4 20.9 0.00 0.08 0.08 39 1009.1
20260505174500 28 238 6.4 16.1 0.00 0.08 0.08 42 1009.0
20260505174000 28 214 6.4 20.9 0.00 0.08 0.08 41 1009.0
20260505173500 27 203 8.0 25.7 0.00 0.08 0.08 44 1008.9
20260505173000 27 206 8.0 25.7 0.00 0.08 0.08 38 1009.0
20260505172500 28 221 6.4 24.1 0.00 0.08 0.08 40 1009.0
20260505172000 27 225 6.4 17.7 0.00 0.08 0.08 41 1009.2
20260505171500 27 224 6.4 19.3 0.00 0.08 0.08 43 1009.1
20260505171000 27 213 4.8 19.3 0.00 0.08 0.08 40 1009.1
20260505170500 27 216 4.8 16.1 0.00 0.08 0.08 44 1009.3
20260505170000 27 243 4.8 12.9 0.00 0.08 0.08 46 1009.3
20260505165500 27 255 4.8 12.9 0.00 0.08 0.08 42 1009.4
20260505165000 27 225 4.8 11.3 0.00 0.08 0.08 45 1009.5
20260505164500 27 202 4.8 11.3 0.00 0.08 0.08 45 1009.6
20260505164000 27 208 6.4 19.3 0.00 0.08 0.08 46 1009.8
20260505163500 26 198 8.0 24.1 0.00 0.08 0.08 51 1009.9
20260505163000 26 195 6.4 24.1 0.00 0.08 0.08 45 1010.2
20260505162500 26 209 6.4 19.3 0.00 0.08 0.08 48 1010.1
20260505162000 26 209 6.4 20.9 0.00 0.08 0.08 48 1010.2
20260505161500 26 197 4.8 20.9 0.00 0.08 0.08 46 1010.2
20260505161000 26 201 4.8 12.9 0.00 0.08 0.08 48 1010.1
20260505160500 26 208 4.8 12.9 0.00 0.08 0.08 49 1010.2
20260505153022 25 207 4.8 16.1 0.00 0.08 0.08 49 1010.3
20260505152501 25 242 3.2 12.9 0.00 0.08 0.08 50 1010.4
20260505152001 25 227 4.8 12.9 0.00 0.08 0.08 53 1010.5
20260505151501 25 237 4.8 12.9 0.00 0.08 0.08 52 1010.5
20260505151001 24 286 4.8 12.9 0.00 0.08 0.08 52 1010.5
20260505150501 24 282 4.8 12.9 0.00 0.08 0.08 53 1010.6
20260505140523 21 204 4.8 12.9 0.00 0.08 0.08 60 1011.1
20260505125002 16 297 1.6 6.4 0.00 0.08 0.08 81 1011.5
20260505124502 16 297 1.6 4.8 0.00 0.08 0.08 82 1011.5
20260505124002 16 45 1.6 4.8 0.00 0.08 0.08 83 1011.5
20260505123502 16 73 1.6 4.8 0.00 0.08 0.08 83 1011.3
20260505123002 16 79 1.6 4.8 0.00 0.08 0.08 84 1011.4
20260505122502 15 92 1.6 4.8 0.00 0.08 0.08 85 1011.2
20260505122023 15 83 1.6 3.2 0.00 0.08 0.08 84 1011.2
20260505121502 15 70 1.6 3.2 0.00 0.08 0.08 85 1011.3
20260505121002 15 72 1.6 3.2 0.00 0.08 0.08 86 1011.3
20260505120503 15 289 0.0 3.2 0.00 0.08 0.08 87 1011.4
20260505120003 14 322 1.6 3.2 0.00 0.08 0.08 87 1011.4
20260505115524 14 328 1.6 3.2 0.00 0.08 0.08 88 1011.3
20260505115002 14 357 1.6 3.2 0.00 0.08 0.08 88 1011.4
20260505114502 14 51 1.6 3.2 0.00 0.08 0.08 89 1011.2
20260505114002 13 2 1.6 1.6 0.00 0.08 0.08 89 1011.1
20260505113502 13 290 1.6 1.6 0.00 0.08 0.08 89 1011.1
20260505113002 13 187 0.0 1.6 0.00 0.08 0.08 89 1011.1
20260505112502 13 211 0.0 1.6 0.00 0.08 0.08 90 1011.1
20260505112002 13 28 0.0 3.2 0.00 0.08 0.08 90 1011.0
20260505111502 12 54 1.6 3.2 0.00 0.08 0.08 90 1011.0
20260505111002 12 91 0.0 1.6 0.00 0.08 0.08 90 1011.0
20260505110524 12 128 0.0 1.6 0.00 0.08 0.08 90 1011.1
20260505102003 11 110 0.0 1.6 0.00 0.08 0.08 88 1010.9
20260505101503 11 258 0.0 1.6 0.00 0.08 0.08 87 1010.7
20260505101024 11 101 0.0 3.2 0.00 0.08 0.08 87 1010.7
20260505100503 11 90 1.6 3.2 0.00 0.08 0.08 87 1010.6
20260505100003 11 85 1.6 3.2 0.00 0.08 0.08 87 1010.7
20260505095503 11 73 0.0 3.2 0.00 0.08 0.08 87 1010.7
20260505095003 11 105 0.0 1.6 0.00 0.08 0.08 87 1010.6
20260505094524 11 151 0.0 3.2 0.00 0.08 0.08 87 1010.6
20260505094003 11 141 1.6 3.2 0.00 0.08 0.08 87 1010.7
20260505093503 12 123 1.6 3.2 0.05 0.08 0.08 87 1010.6
20260505093003 12 128 1.6 3.2 0.08 0.08 0.08 87 1010.8
20260505092503 12 147 1.6 3.2 0.08 0.08 0.08 87 1010.7
20260505092003 12 130 1.6 4.8 0.08 0.08 0.08 87 1010.7
20260505091459 12 107 1.6 4.8 0.08 0.08 0.08 86 1010.8
20260505090959 12 135 1.6 3.2 0.08 0.08 0.08 86 1010.9
20260505090459 12 150 1.6 6.4 0.08 0.08 0.08 86 1010.9
20260505090000 12 144 1.6 6.4 0.08 0.08 0.08 86 1010.9
20260505085500 12 112 1.6 4.8 0.08 0.08 0.08 85 1011.0
20260505085000 12 108 1.6 4.8 0.08 0.08 0.08 84 1011.0
20260505084521 12 92 1.6 4.8 0.08 0.08 0.08 84 1010.8
20260505084000 12 293 1.6 9.7 0.08 0.08 0.08 82 1011.1
20260505083521 12 103 3.2 9.7 0.03 0.03 0.03 82 1011.0
20260505083000 12 97 1.6 4.8 0.00 0.00 0.00 79 1010.5
20260505082500 12 321 1.6 3.2 0.00 0.00 0.00 77 1010.9
20260505082000 12 242 1.6 3.2 0.00 0.00 0.00 76 1011.1
20260505081500 12 190 1.6 3.2 0.00 0.00 0.00 76 1010.7
20260505081000 12 274 1.6 4.8 0.00 0.00 0.00 76 1010.7
20260505080500 12 268 1.6 4.8 0.00 0.00 0.00 77 1010.7
20260505080000 12 230 0.0 1.6 0.00 0.00 0.00 76 1010.4
20260505075500 12 93 0.0 3.2 0.00 0.00 0.00 76 1010.3
20260505075000 12 98 0.0 3.2 0.00 0.00 0.00 76 1010.2
20260505074500 12 109 0.0 1.6 0.00 0.00 0.00 75 1010.2
20260505074000 12 102 0.0 3.2 0.00 0.00 0.00 75 1010.1
20260505073522 12 119 0.0 3.2 0.00 0.00 0.00 75 1010.1
20260505073000 12 130 0.0 3.2 0.00 0.00 0.00 75 1010.3
20260505072500 12 112 0.0 1.6 0.00 0.00 0.00 73 1010.2
20260505072022 12 117 0.0 1.6 0.00 0.00 0.00 73 1010.3
20260505071500 13 118 0.0 1.6 0.00 0.00 0.00 72 1010.3
20260505071000 13 104 0.0 3.2 0.00 0.00 0.00 72 1010.2
20260505070500 13 94 0.0 3.2 0.00 0.00 0.00 72 1010.3
20260505070001 13 48 0.0 3.2 0.00 0.00 0.00 71 1010.3
20260505065501 13 49 0.0 1.6 0.00 0.00 0.00 71 1010.3
20260505065001 13 138 0.0 1.6 0.00 0.00 0.00 70 1010.3
20260505064522 13 142 0.0 1.6 0.00 0.00 0.00 70 1010.3
20260505064022 13 165 0.0 1.6 0.00 0.00 0.00 70 1010.3
20260505063501 13 81 0.0 1.6 0.00 0.00 0.00 69 1010.3
20260505063001 13 52 0.0 3.2 0.00 0.00 0.00 69 1010.3
20260505062501 13 40 0.0 3.2 0.00 0.00 0.00 69 1010.4
20260505062001 13 66 0.0 3.2 0.00 0.00 0.00 68 1010.4
20260505061501 14 95 0.0 3.2 0.00 0.00 0.00 67 1010.4
20260505061001 14 33 0.0 1.6 0.00 0.00 0.00 66 1010.4
20260505060522 15 160 0.0 1.6 0.00 0.00 0.00 65 1010.3